GW5291 Weather Reports


time (UTC)temp
C
wind
direction
speed
KPH
gust
KPH
rain 1hr
cm
rain 24hr
cm
rain mn
cm
humidity
%
barometer
mb
20260506140309 12 42 3.2 8.0 0.00 0.00 0.00 80 1015.5
20260506135806 12 72 1.6 6.4 0.00 0.00 0.00 81 1015.3
20260506135305 12 38 3.2 4.8 0.00 0.00 0.00 81 1015.5
20260506134759 12 34 6.4 9.7 0.00 0.00 0.00 81 1015.4
20260506134255 11 47 8.0 9.7 0.00 0.00 0.00 81 1015.1
20260506133753 11 91 0.0 9.7 0.00 0.00 0.00 81 1015.2
20260506133250 11 78 3.2 8.0 0.00 0.00 0.00 81 1015.3
20260506132746 11 41 8.0 8.0 0.00 0.00 0.00 81 1015.2
20260506132244 11 50 3.2 6.4 0.00 0.00 0.00 81 1015.0
20260506131742 11 62 6.4 8.0 0.00 0.00 0.00 81 1014.8
20260506131237 11 57 4.8 8.0 0.00 0.00 0.00 81 1014.8
20260506130734 11 66 4.8 8.0 0.00 0.00 0.00 81 1014.8
20260506130231 11 42 6.4 9.7 0.00 0.00 0.00 81 1014.8
20260506125729 11 26 4.8 12.9 0.00 0.00 0.00 81 1014.4
20260506125227 11 92 3.2 6.4 0.00 0.00 0.00 81 1014.7
20260506124725 11 54 1.6 8.0 0.00 0.00 0.00 81 1014.7
20260506124222 11 74 3.2 6.4 0.00 0.00 0.00 81 1014.7
20260506123719 11 45 4.8 6.4 0.00 0.00 0.00 81 1014.7
20260506123218 11 53 0.0 6.4 0.00 0.00 0.00 81 1014.5
20260506122715 11 34 6.4 8.0 0.00 0.00 0.00 81 1014.5
20260506122212 11 95 3.2 8.0 0.00 0.00 0.00 81 1014.6
20260506121710 11 57 0.0 9.7 0.00 0.00 0.00 81 1014.4
20260506121206 11 41 8.0 9.7 0.00 0.00 0.00 80 1014.5
20260506120704 12 29 3.2 8.0 0.00 0.00 0.00 80 1014.0
20260506120201 12 53 4.8 8.0 0.00 0.00 0.00 79 1014.3
20260506115659 12 55 3.2 11.3 0.00 0.00 0.00 78 1014.2
20260506115157 12 28 1.6 9.7 0.00 0.00 0.00 78 1014.0
20260506114654 12 57 4.8 9.7 0.00 0.00 0.00 77 1014.0
20260506114152 12 58 3.2 8.0 0.00 0.00 0.00 77 1014.0
20260506113650 12 76 3.2 6.4 0.00 0.00 0.00 77 1013.7
20260506113147 12 51 4.8 9.7 0.00 0.00 0.00 77 1013.5
20260506112643 12 110 3.2 6.4 0.00 0.00 0.00 76 1013.5
20260506112141 12 46 6.4 6.4 0.00 0.00 0.00 76 1013.3
20260506111639 12 64 3.2 9.7 0.00 0.00 0.00 76 1013.6
20260506111136 12 35 3.2 9.7 0.00 0.00 0.00 75 1013.5
20260506110634 12 47 3.2 8.0 0.00 0.00 0.00 76 1013.3
20260506110131 12 54 8.0 8.0 0.00 0.00 0.00 75 1013.0
20260506105627 12 29 4.8 9.7 0.00 0.00 0.00 75 1013.1
20260506105124 12 45 6.4 9.7 0.00 0.00 0.00 75 1013.2
20260506104622 12 51 4.8 9.7 0.00 0.00 0.00 74 1013.0
20260506104120 13 51 1.6 6.4 0.00 0.00 0.00 74 1013.0
20260506103617 13 69 1.6 8.0 0.00 0.00 0.00 73 1012.7
20260506103114 13 52 3.2 6.4 0.00 0.00 0.00 73 1012.8
20260506102612 13 66 1.6 8.0 0.00 0.00 0.00 73 1012.6
20260506102109 13 49 3.2 8.0 0.00 0.00 0.00 73 1012.5
20260506101606 13 95 1.6 8.0 0.00 0.00 0.00 73 1012.7
20260506101102 13 52 6.4 8.0 0.00 0.00 0.00 73 1012.5
20260506100601 13 53 0.0 6.4 0.00 0.00 0.00 73 1012.2
20260506100058 13 42 4.8 6.4 0.00 0.00 0.00 73 1012.1
20260506095557 13 65 3.2 8.0 0.00 0.00 0.00 73 1012.1
20260506095053 13 60 3.2 6.4 0.00 0.00 0.00 73 1012.2
20260506094551 13 55 3.2 6.4 0.00 0.00 0.00 73 1012.2
20260506094048 13 63 4.8 9.7 0.00 0.00 0.00 73 1012.0
20260506093546 13 60 4.8 6.4 0.00 0.00 0.00 73 1012.0
20260506093043 13 66 6.4 6.4 0.00 0.00 0.00 73 1011.9
20260506092542 13 50 3.2 6.4 0.00 0.00 0.00 73 1011.8
20260506092038 13 80 1.6 8.0 0.00 0.00 0.00 73 1012.0
20260506091537 13 45 6.4 8.0 0.00 0.00 0.00 73 1011.9
20260506091033 13 60 3.2 8.0 0.00 0.00 0.00 73 1011.9
20260506090531 13 60 3.2 9.7 0.00 0.00 0.00 72 1011.9
20260506090027 13 38 3.2 6.4 0.00 0.00 0.00 72 1011.7
20260506085524 13 73 4.8 9.7 0.00 0.00 0.00 72 1011.5
20260506085020 13 27 3.2 8.0 0.00 0.00 0.00 72 1011.4
20260506084518 13 41 3.2 6.4 0.00 0.00 0.00 72 1011.5
20260506084013 13 62 3.2 8.0 0.00 0.00 0.00 72 1011.6
20260506083511 13 95 1.6 6.4 0.00 0.00 0.00 72 1011.5
20260506083009 13 30 1.6 6.4 0.00 0.00 0.00 72 1011.6
20260506082505 13 61 3.2 8.0 0.00 0.00 0.00 72 1011.5
20260506082001 13 58 4.8 6.4 0.00 0.00 0.00 72 1011.5
20260506081459 13 70 0.0 6.4 0.00 0.00 0.00 72 1011.5
20260506080956 13 45 4.8 8.0 0.00 0.00 0.00 72 1011.5
20260506080453 13 58 3.2 4.8 0.00 0.00 0.00 72 1011.3
20260506073437 13 56 3.2 9.7 0.00 0.00 0.00 72 1010.9
20260506072934 14 44 4.8 6.4 0.00 0.00 0.00 72 1011.1
20260506072431 14 39 4.8 9.7 0.00 0.00 0.00 72 1011.1
20260506071929 14 53 4.8 6.4 0.00 0.00 0.00 74 1010.9
20260506071427 14 43 0.0 6.4 0.00 0.00 0.00 75 1010.9
20260506070924 14 84 3.2 8.0 0.00 0.00 0.00 75 1010.7
20260506070420 14 61 4.8 8.0 0.00 0.00 0.00 75 1011.1
20260506062358 15 25 1.6 9.7 0.00 0.00 0.00 75 1011.3
20260506061853 15 56 3.2 6.4 0.00 0.00 0.00 75 1011.1
20260506061350 15 77 4.8 8.0 0.00 0.00 0.00 74 1011.2
20260506060849 15 55 3.2 3.2 0.00 0.00 0.00 75 1011.0
20260506060346 15 14 0.0 6.4 0.00 0.00 0.00 74 1011.2
20260506051318 15 29 3.2 9.7 0.00 0.00 0.00 74 1011.1
20260506050816 15 55 3.2 9.7 0.00 0.00 0.00 74 1010.9
20260506050313 15 43 4.8 8.0 0.00 0.00 0.00 74 1011.0
20260506044804 16 65 6.4 6.4 0.00 0.00 0.00 77 1011.1
20260506044301 16 55 4.8 6.4 0.00 0.00 0.00 77 1011.0
20260506043758 16 45 4.8 8.0 0.00 0.00 0.00 77 1010.9
20260506043255 16 56 0.0 8.0 0.00 0.00 0.00 77 1010.8
20260506042754 16 23 0.0 6.4 0.00 0.00 0.00 77 1011.2
20260506042253 16 31 8.0 11.3 0.00 0.00 0.00 77 1011.0
20260506041751 16 37 8.0 12.9 0.00 0.00 0.00 77 1011.0
20260506041247 16 29 3.2 8.0 0.00 0.00 0.00 77 1010.8
20260506040745 16 57 6.4 9.7 0.00 0.00 0.00 76 1010.7
20260506040242 16 37 6.4 6.4 0.00 0.00 0.00 76 1010.7
20260506035738 17 44 8.0 9.7 0.00 0.00 0.00 76 1010.6
20260506035235 17 25 6.4 11.3 0.00 0.00 0.00 76 1010.4
20260506034733 17 77 3.2 8.0 0.00 0.00 0.00 76 1010.3
20260506034230 17 42 3.2 9.7 0.00 0.00 0.00 76 1010.4
20260506033727 17 37 8.0 9.7 0.00 0.00 0.00 76 1010.1
20260506033224 17 47 3.2 8.0 0.00 0.00 0.00 76 1010.0
20260506032721 17 26 4.8 9.7 0.00 0.00 0.00 75 1010.2
20260506032217 17 61 3.2 12.9 0.00 0.00 0.00 75 1009.9
20260506031714 17 60 3.2 9.7 0.00 0.00 0.00 75 1010.2
20260506031212 17 40 3.2 6.4 0.00 0.00 0.00 75 1010.2
20260506030710 17 35 4.8 6.4 0.00 0.00 0.00 75 1010.1
20260506030207 18 85 6.4 9.7 0.00 0.00 0.00 75 1009.9
20260506025703 18 59 3.2 11.3 0.00 0.00 0.00 75 1009.9
20260506025200 18 342 3.2 8.0 0.00 0.00 0.00 74 1009.6
20260506024657 18 59 1.6 6.4 0.00 0.00 0.00 74 1009.7
20260506024153 18 60 0.0 9.7 0.00 0.00 0.00 74 1009.5
20260506023649 19 40 3.2 12.9 0.00 0.00 0.00 73 1009.3
20260506023147 19 27 6.4 8.0 0.00 0.00 0.00 73 1009.1
20260506022644 20 359 1.6 6.4 0.00 0.00 0.00 73 1008.7
20260506022141 20 71 0.0 11.3 0.00 0.00 0.00 73 1008.6
20260506021639 20 325 4.8 6.4 0.00 0.00 0.00 73 1008.7
20260506021136 20 50 4.8 6.4 0.00 0.00 0.00 73 1008.5
20260506020633 20 31 4.8 6.4 0.00 0.00 0.00 72 1008.2
20260506020131 20 42 4.8 6.4 0.00 0.00 0.00 72 1008.3
20260506015628 20 321 0.0 4.8 0.00 0.00 0.00 71 1008.3
20260506015125 20 45 3.2 8.0 0.00 0.00 0.00 71 1008.0
20260506014623 21 41 1.6 6.4 0.00 0.00 0.00 71 1008.1
20260506014118 21 26 6.4 6.4 0.00 0.00 0.00 71 1008.0
20260506013617 21 28 0.0 6.4 0.00 0.00 0.00 71 1007.5
20260506013113 21 36 1.6 4.8 0.00 0.00 0.00 71 1007.5
20260506012609 21 65 0.0 4.8 0.00 0.00 0.00 71 1007.6
20260506012106 21 58 0.0 3.2 0.00 0.00 0.00 70 1007.5
20260506011604 21 83 1.6 6.4 0.00 0.00 0.00 70 1007.5
20260506011100 21 13 0.0 3.2 0.00 0.00 0.00 69 1007.3
20260506010600 22 91 0.0 3.2 0.00 0.00 0.00 68 1007.2
20260506010056 22 27 0.0 6.4 0.00 0.00 0.00 68 1007.1
20260506005553 22 321 0.0 3.2 0.00 0.00 0.00 68 1007.7
20260506005049 22 36 0.0 3.2 0.00 0.00 0.00 68 1007.0
20260506004546 22 42 3.2 6.4 0.00 0.00 0.00 68 1006.5
20260506004043 22 35 3.2 6.4 0.00 0.00 0.00 67 1006.8
20260506003539 22 41 3.2 4.8 0.00 0.00 0.00 67 1006.7
20260506003036 22 23 0.0 3.2 0.00 0.00 0.00 67 1006.7
20260506002532 22 37 0.0 4.8 0.00 0.00 0.00 66 1006.4
20260506002027 22 51 1.6 4.8 0.00 0.00 0.00 65 1006.2
20260506001524 23 37 4.8 6.4 0.00 0.00 0.00 65 1006.4
20260506001021 23 89 0.0 6.4 0.00 0.00 0.00 65 1006.4
20260506000519 23 4 1.6 9.7 0.00 0.00 0.00 64 1006.3
20260506000016 23 292 0.0 9.7 0.00 0.00 0.00 64 1006.3
20260505235514 23 6 3.2 4.8 0.00 0.00 0.00 65 1006.6
20260505235010 24 33 1.6 9.7 0.00 0.00 0.00 63 1006.3
20260505234508 25 312 4.8 6.4 0.00 0.00 0.00 62 1006.1
20260505234004 25 6 1.6 8.0 0.00 0.00 0.00 62 1006.2
20260505233502 25 7 3.2 6.4 0.00 0.00 0.00 62 1006.3
20260505232959 25 15 3.2 6.4 0.00 0.00 0.00 61 1006.0
20260505232457 25 26 4.8 4.8 0.00 0.00 0.00 60 1005.9
20260505231954 26 347 1.6 6.4 0.00 0.00 0.00 60 1006.0
20260505231451 26 25 3.2 8.0 0.00 0.00 0.00 59 1006.0
20260505230949 26 356 3.2 6.4 0.00 0.00 0.00 58 1006.1
20260505230447 26 30 6.4 8.0 0.00 0.00 0.00 58 1005.9
20260505225943 27 8 3.2 4.8 0.00 0.00 0.00 57 1005.7
20260505225440 27 317 3.2 6.4 0.00 0.00 0.00 57 1005.6
20260505224936 28 311 6.4 6.4 0.00 0.00 0.00 56 1005.3
20260505224433 28 319 1.6 6.4 0.00 0.00 0.00 55 1005.2
20260505223930 29 306 0.0 3.2 0.00 0.00 0.00 51 1005.3
20260505223427 30 314 0.0 3.2 0.00 0.00 0.00 51 1005.2
20260505222923 30 342 0.0 1.6 0.00 0.00 0.00 49 1005.0
20260505222420 30 38 0.0 4.8 0.00 0.00 0.00 46 1004.9
20260505221916 30 269 0.0 3.2 0.00 0.00 0.00 47 1004.8
20260505221413 31 318 0.0 3.2 0.00 0.00 0.00 45 1004.8
20260505220910 31 10 3.2 4.8 0.00 0.00 0.00 45 1004.6
20260505220407 31 62 0.0 0.0 0.00 0.00 0.00 45 1004.6
20260505215905 31 269 0.0 1.6 0.00 0.00 0.00 44 1004.8
20260505215403 31 269 0.0 3.2 0.00 0.00 0.00 45 1004.8
20260505214900 31 16 3.2 4.8 0.00 0.00 0.00 43 1004.7
20260505214358 32 209 0.0 4.8 0.00 0.00 0.00 44 1004.9
20260505213855 32 288 3.2 3.2 0.00 0.00 0.00 49 1004.7
20260505213353 32 197 4.8 8.0 0.00 0.00 0.00 47 1004.6
20260505212848 33 237 3.2 8.0 0.00 0.00 0.00 47 1004.4
20260505212346 33 254 1.6 6.4 0.00 0.00 0.00 46 1004.8
20260505211841 33 89 0.0 8.0 0.00 0.00 0.00 47 1004.8
20260505211339 33 239 1.6 6.4 0.00 0.00 0.00 47 1004.9
20260505210836 33 243 1.6 9.7 0.00 0.00 0.00 46 1004.9
20260505210333 33 226 0.0 6.4 0.00 0.00 0.00 45 1005.0
20260505205829 33 308 0.0 4.8 0.00 0.00 0.00 48 1004.9
20260505205328 32 302 3.2 4.8 0.00 0.00 0.00 48 1005.1
20260505204824 32 232 1.6 8.0 0.00 0.00 0.00 48 1004.9
20260505204322 32 224 6.4 8.0 0.00 0.00 0.00 50 1005.1
20260505203819 32 202 8.0 8.0 0.00 0.00 0.00 51 1005.1
20260505203316 32 256 4.8 6.4 0.00 0.00 0.00 52 1005.2
20260505202812 31 245 4.8 12.9 0.00 0.00 0.00 53 1005.3
20260505202308 32 221 9.7 11.3 0.00 0.00 0.00 51 1005.4
20260505201805 31 209 8.0 12.9 0.00 0.00 0.00 52 1005.5
20260505201303 31 253 3.2 4.8 0.00 0.00 0.00 54 1005.4
20260505200801 31 238 6.4 17.7 0.00 0.00 0.00 53 1005.2
20260505200257 31 214 6.4 11.3 0.00 0.00 0.00 53 1005.5
20260505195752 31 217 6.4 9.7 0.00 0.00 0.00 54 1005.3
20260505195251 31 248 4.8 9.7 0.00 0.00 0.00 55 1005.6
20260505194747 31 228 4.8 9.7 0.00 0.00 0.00 55 1005.5
20260505194244 30 235 4.8 6.4 0.00 0.00 0.00 56 1005.5
20260505193739 30 229 8.0 16.1 0.00 0.00 0.00 56 1005.7
20260505193237 31 206 6.4 8.0 0.00 0.00 0.00 56 1005.7
20260505192736 31 269 3.2 9.7 0.00 0.00 0.00 56 1005.7
20260505192233 30 219 8.0 11.3 0.00 0.00 0.00 57 1005.2
20260505191731 30 221 1.6 9.7 0.00 0.00 0.00 58 1005.3
20260505191229 30 258 4.8 9.7 0.00 0.00 0.00 58 1005.6
20260505190725 30 201 4.8 9.7 0.00 0.00 0.00 59 1005.4
20260505190225 29 264 3.2 16.1 0.00 0.00 0.00 59 1005.5
20260505185722 29 212 6.4 11.3 0.00 0.00 0.00 61 1005.6
20260505185218 28 236 4.8 12.9 0.00 0.00 0.00 61 1005.4
20260505184714 28 240 3.2 17.7 0.00 0.00 0.00 61 1005.5
20260505184212 28 224 4.8 17.7 0.00 0.00 0.00 61 1005.7
20260505183708 29 203 8.0 8.0 0.00 0.00 0.00 60 1005.8
20260505183206 29 227 1.6 8.0 0.00 0.00 0.00 61 1005.7
20260505182702 28 250 3.2 12.9 0.00 0.00 0.00 60 1005.5
20260505182159 28 256 3.2 9.7 0.00 0.00 0.00 61 1005.5
20260505181656 28 228 3.2 9.7 0.00 0.00 0.00 61 1005.6
20260505181153 28 254 4.8 12.9 0.00 0.00 0.00 62 1005.6
20260505180649 28 227 6.4 8.0 0.00 0.00 0.00 62 1005.8
20260505180147 29 287 0.0 8.0 0.00 0.00 0.00 62 1005.7
20260505175642 28 255 1.6 16.1 0.00 0.00 0.00 63 1005.8
20260505175139 28 272 3.2 11.3 0.00 0.00 0.00 64 1005.5
20260505174636 28 222 1.6 9.7 0.00 0.00 0.00 65 1005.7
20260505174132 28 189 11.3 19.3 0.00 0.00 0.00 64 1005.5
20260505173629 27 220 6.4 20.9 0.00 0.00 0.00 64 1005.6
20260505173126 27 259 4.8 11.3 0.00 0.00 0.00 64 1005.7
20260505172623 27 213 8.0 14.5 0.00 0.00 0.00 65 1005.7
20260505172120 27 233 6.4 14.5 0.00 0.00 0.00 64 1005.6
20260505171614 27 213 4.8 9.7 0.00 0.00 0.00 67 1005.5
20260505171112 27 233 4.8 11.3 0.00 0.00 0.00 67 1005.8
20260505170609 27 229 6.4 14.5 0.00 0.00 0.00 67 1005.7
20260505170105 26 279 4.8 22.5 0.00 0.00 0.00 68 1005.6
20260505165600 27 290 3.2 8.0 0.00 0.00 0.00 68 1005.8
20260505165056 27 244 3.2 16.1 0.00 0.00 0.00 68 1005.8
20260505164552 26 216 6.4 11.3 0.00 0.00 0.00 68 1005.8
20260505164050 26 235 4.8 8.0 0.00 0.00 0.00 68 1005.8
20260505163548 26 215 3.2 9.7 0.00 0.00 0.00 70 1005.6
20260505163045 26 212 4.8 16.1 0.00 0.00 0.00 70 1005.5
20260505162543 26 210 4.8 14.5 0.00 0.00 0.00 71 1005.5
20260505162041 26 198 8.0 12.9 0.00 0.00 0.00 70 1005.6
20260505161537 26 233 3.2 14.5 0.00 0.00 0.00 70 1005.3
20260505161035 26 225 4.8 12.9 0.00 0.00 0.00 71 1005.3
20260505160532 26 296 1.6 20.9 0.00 0.00 0.00 71 1005.3
20260505153009 26 177 1.6 12.9 0.00 0.00 0.00 71 1005.3
20260505152506 26 207 16.1 17.7 0.00 0.00 0.00 70 1005.1
20260505152001 26 229 3.2 8.0 0.00 0.00 0.00 72 1005.1
20260505151457 25 204 3.2 19.3 0.00 0.00 0.00 74 1005.3
20260505150954 25 212 19.3 20.9 0.00 0.00 0.00 74 1005.6
20260505150452 24 249 4.8 12.9 0.00 0.00 0.00 76 1005.7
20260505140421 22 231 6.4 11.3 0.00 0.00 0.00 80 1005.4